North Myrtle Beach, SC

8:58 AM EST on November 20, 2019 (GMT -0500)
Grand Strand

Weather History for KCRE - August, 2019

Change the Weather History Date:

Saturday, August 3, 2019

  Actual Average Record
Temperature  
Mean Temperature 79 °F 80 °F  
Max Temperature 84 °F 87 °F 100 °F (1954)
Min Temperature 73 °F 73 °F 66 °F (1997)
Degree Days  
Heating Degree Days 0 0  
Month to date heating degree days 0 0  
Since 1 June heating degree days 0 0  
Since 1 July heating degree days 0 0  
Cooling Degree Days 14 15  
Month to date cooling degree days 45 45  
Year to date cooling degree days 1337 1090  
Since 1 June cooling degree days 944 878  
Growing Degree Days 28 (Base 50)    
Moisture  
Dew Point 73 °F    
Average Humidity 87    
Maximum Humidity 94    
Minimum Humidity 79    
Precipitation  
Precipitation 0.27 in 0.21 in 1.83 in (2016)
Month to date precipitation 0.27 0.64  
Year to date precipitation 23.28 28.58  
Sea Level Pressure  
Sea Level Pressure 29.98 in    
Wind  
Wind Speed 6 mph (ENE)    
Max Wind Speed 13 mph    
Max Gust Speed 15 mph    
Visibility 9 miles    
Events Rain    
T = Trace of Precipitation, MM = Missing Value Source: NWS Daily Summary

Daily Weather History Graph

Daily Weather History Graph

Search for Another Location

Airport or City:

Astronomy

Aug. 03, 2019 Rise Set
Actual Time 6:27 AM EDT 8:13 PM EDT
Civil Twilight 6:00 AM EDT 8:40 PM EDT
Nautical Twilight 5:27 AM EDT 9:13 PM EDT
Astronomical Twilight 4:53 AM EDT 9:48 PM EDT
Moon 9:12 AM EDT (8/3) 10:26 PM EDT (8/3)
Length of Visible Light 14h 40m
Length of Day
13h 45m
Waxing Crescent, 10% of the Moon is Illuminated
Aug 3
Waxing Crescent
Aug 7
First Quarter
Aug 15
Full
Aug 23
Last Quarter
Aug 30
New

Hourly Weather History & Observations

Time (EDT) Temp. Heat Index Dew Point Humidity Pressure Visibility Wind Dir Wind Speed Gust Speed Precip Events Conditions
12:53 AM 75.9 °F - 73.0 °F 91% 30.03 in 10.0 mi NNE 3.5 mph - N/A   Scattered Clouds
1:16 AM 75.0 °F - 71.1 °F 87% 30.04 in 2.5 mi SSE 8.1 mph - 0.10 in Rain Heavy Rain
1:19 AM 73.9 °F - 71.1 °F 91% 30.04 in 1.8 mi SE 5.8 mph - 0.13 in Rain Heavy Rain
1:31 AM 73.9 °F - 71.1 °F 91% 30.03 in 3.0 mi ENE 5.8 mph - 0.19 in Rain Heavy Rain
1:48 AM 73.4 °F - 71.6 °F 94% 30.02 in 5.0 mi ENE 8.1 mph - 0.23 in Rain Light Rain
1:53 AM 73.9 °F - 72.0 °F 93% 30.02 in 7.0 mi ENE 8.1 mph - 0.24 in Rain Light Rain
2:53 AM 73.9 °F - 72.0 °F 93% 30.01 in 10.0 mi NE 6.9 mph - 0.00 in   Mostly Cloudy
3:53 AM 73.9 °F - 72.0 °F 93% 29.99 in 10.0 mi NNE 4.6 mph - N/A   Clear
4:53 AM 73.9 °F - 72.0 °F 93% 29.99 in 10.0 mi Calm Calm - N/A   Clear
5:53 AM 73.0 °F - 72.0 °F 96% 29.98 in 10.0 mi NNE 4.6 mph - N/A   Clear
6:53 AM 73.0 °F - 72.0 °F 96% 29.98 in 10.0 mi NNE 4.6 mph - N/A   Partly Cloudy
7:53 AM 73.9 °F - 73.0 °F 97% 30.00 in 10.0 mi NE 6.9 mph - 0.00 in Rain Light Rain
8:53 AM 75.0 °F - 73.9 °F 96% 30.00 in 10.0 mi NE 5.8 mph - 0.00 in   Scattered Clouds
9:53 AM 75.9 °F - 73.9 °F 94% 30.00 in 10.0 mi NNE 5.8 mph - 0.00 in Rain Light Rain
10:53 AM 77.0 °F - 75.0 °F 94% 30.00 in 10.0 mi NE 8.1 mph - 0.01 in Rain Light Rain
11:15 AM 77.0 °F - 75.0 °F 94% 29.99 in 10.0 mi NE 9.2 mph - 0.00 in   Overcast
11:25 AM 78.1 °F - 75.0 °F 90% 30.00 in 10.0 mi ENE 8.1 mph - 0.00 in   Overcast
11:53 AM 78.1 °F - 75.0 °F 90% 30.00 in 10.0 mi NE 6.9 mph - 0.00 in   Overcast
12:01 PM 78.1 °F - 75.0 °F 90% 29.99 in 10.0 mi NE 8.1 mph - N/A   Overcast
12:53 PM 81.0 °F 86.7 °F 75.0 °F 82% 29.99 in 10.0 mi NE 8.1 mph - 0.00 in   Overcast
1:29 PM 82.9 °F 90.2 °F 75.0 °F 77% 29.97 in 10.0 mi NNE 6.9 mph - N/A   Overcast
1:53 PM 82.9 °F 90.2 °F 75.0 °F 77% 29.96 in 10.0 mi NE 8.1 mph - N/A   Overcast
2:50 PM 82.4 °F 89.5 °F 75.2 °F 79% 29.95 in 10.0 mi SE 8.1 mph - N/A   Overcast
2:53 PM 81.0 °F 86.7 °F 75.0 °F 82% 29.96 in 10.0 mi SE 9.2 mph - N/A   Overcast
3:14 PM 81.0 °F 86.7 °F 75.0 °F 82% 29.95 in 10.0 mi SE 9.2 mph - N/A   Overcast
3:53 PM 81.0 °F 87.3 °F 75.9 °F 85% 29.95 in 6.0 mi ESE 8.1 mph - 0.02 in Rain Light Rain
4:53 PM 82.0 °F 87.4 °F 73.0 °F 74% 29.94 in 10.0 mi SE 11.5 mph - 0.00 in   Partly Cloudy
5:53 PM 81.0 °F 86.2 °F 73.9 °F 79% 29.94 in 10.0 mi East 5.8 mph - N/A   Mostly Cloudy
6:53 PM 81.0 °F 85.8 °F 73.0 °F 77% 29.94 in 10.0 mi Variable 6.9 mph - N/A   Mostly Cloudy
7:53 PM 80.1 °F 84.2 °F 73.0 °F 79% 29.94 in 10.0 mi ESE 5.8 mph - N/A   Overcast
8:53 PM 79.0 °F - 73.0 °F 82% 29.95 in 10.0 mi ESE 4.6 mph - N/A   Partly Cloudy
9:53 PM 79.0 °F - 73.0 °F 82% 29.97 in 10.0 mi ESE 4.6 mph - N/A   Scattered Clouds
10:53 PM 77.0 °F - 73.0 °F 88% 29.97 in 10.0 mi SE 3.5 mph - N/A   Clear
11:53 PM 75.9 °F - 73.9 °F 94% 29.97 in 10.0 mi Calm Calm - N/A   Clear